Flag for U.S.A. Weather past 2 weeks in Grand Rapids, Michigan, U.S.A.

Now
49 °F

Partly sunny.


Feels Like: 44 °F
Forecast: 36 / 58 °F
Wind: 12 mph from North

Location: Kent County International Airport

Current Time: Apr 27, 2015 at 11:43:33 AM

Latest Report: Apr 27, 2015 at 10:53 AM


Visibility: 10 mi

Pressure: 30.05 "Hg

Humidity: 57%

Dew point: 34 °F

Location of Grand RapidsLocation

Historic Weather in Grand Rapids — Graph

°F

Grand Rapids temperature yesterday

Maximum temperature yesterday: 60 °F (at 4:53 PM)
Minimum temperature yesterday: 35 °F (at 3:53 AM)
Average temperature yesterday: 47 °F

Past Weeks' High & Low Weather Summary

 TemperatureHumidityPressure
High75 °F (Apr 17, 3:53 PM)97% (Apr 20, 3:53 AM)30.36 "Hg (Apr 20, 3:53 AM)
Low26 °F (Apr 24, 6:53 AM)18% (Apr 18, 6:53 PM)29.15 "Hg (Apr 20, 3:53 AM)
Average49 °F56%29.94 "Hg
* Reported Apr 12 9:53 AM — Apr 27 9:53 AM, Grand Rapids, Weather by CustomWeather, © 2015

Note: Actual official high and low records may vary slightly from our data, if they occured in-between our weather recording intervals... More about our weather records

Advertising

Grand Rapids weather history for previous 24 hours

 ConditionsComfort  
Time TempWeatherWind HumidityBarometerVisibility
9:53 AM
Mon, Apr 27
47 °FBroken clouds.12 mph59%30.03 "Hg10 mi
8:53 AM45 °FPartly sunny.12 mph63%30.01 "Hg10 mi
7:53 AM41 °FPartly sunny.10 mph67%30.01 "Hg10 mi
6:53 AM41 °FPassing clouds.8 mph67%30.01 "Hg10 mi
5:53 AM40 °FOvercast.7 mph68%30.00 "Hg10 mi
4:53 AM40 °FPartly cloudy.7 mph68%29.99 "Hg10 mi
3:53 AM42 °FOvercast.8 mph62%29.99 "Hg10 mi
2:53 AM41 °FPassing clouds.7 mph65%30.00 "Hg10 mi
1:53 AM41 °FClear.8 mph65%30.00 "Hg10 mi
12:53 AM43 °FClear.9 mph58%29.99 "Hg10 mi
11:53 PM
Sun, Apr 26
45 °FClear.10 mph53%29.99 "Hg10 mi
10:53 PM46 °FClear.10 mph51%29.97 "Hg10 mi
9:53 PM49 °FClear.10 mph44%29.96 "Hg10 mi
8:53 PM51 °FPassing clouds.10 mph38%29.94 "Hg10 mi
7:53 PM55 °FBroken clouds.17 mph34%29.93 "Hg10 mi
6:53 PM57 °FPartly sunny.20 mph33%29.92 "Hg10 mi
5:53 PM60 °FPartly sunny.13 mph28%29.91 "Hg10 mi
4:53 PM60 °FPartly sunny.13 mph28%29.92 "Hg10 mi
3:53 PM58 °FPartly sunny.6 mph31%29.94 "Hg10 mi
2:53 PM58 °FPartly sunny.5 mph31%29.95 "Hg10 mi
1:53 PM56 °FScattered clouds.6 mph33%29.97 "Hg10 mi
12:53 PM54 °FPassing clouds.6 mph34%29.98 "Hg10 mi
11:53 AM53 °FPassing clouds.9 mph35%29.99 "Hg10 mi
Weather by CustomWeather, © 2015

See weather overviewHow to use our weather pages